Location: Bretagne
(43.8474°N, 0.4650°W)
Time: 17:13:18
(UTC+00:00)

ISS - Visible Passes

Search period start: 13 March 2026 00:00
Search period end: 23 March 2026 00:00
Orbit: 415 x 426 km, 51.6° (Epoch: 12 March)

Date Brightness Start Highest point End Pass type
(mag) Time Alt. Az. Time Alt. Az. Time Alt. Az.
13 Mar -3.3 18:43:42 10° SW 18:46:58 46° SE 18:50:14 10° ENE visible
13 Mar -2.0 20:20:43 10° W 20:23:16 32° NW 20:23:16 32° NW visible
14 Mar -2.9 19:33:22 10° W 19:36:40 47° NNW 19:38:26 23° NE visible
14 Mar -0.1 21:11:21 10° WNW 21:11:25 10° WNW 21:11:25 10° WNW visible
15 Mar -3.4 18:46:06 10° WSW 18:49:29 69° NNW 18:52:53 10° NE visible
15 Mar -1.6 20:23:55 10° WNW 20:26:26 23° NNW 20:26:26 23° NNW visible
16 Mar -2.0 19:36:27 10° WNW 19:39:26 28° NNW 19:41:21 17° NE visible
16 Mar -0.1 21:14:16 10° NW 21:14:20 10° NW 21:14:20 10° NW visible
17 Mar -2.3 18:48:58 10° W 18:52:07 34° NNW 18:55:16 10° NE visible
17 Mar -1.5 20:26:56 10° NW 20:29:10 21° NNW 20:29:10 21° NNW visible
18 Mar -1.7 19:39:30 10° WNW 19:42:13 22° N 19:43:55 16° NE visible
18 Mar -0.2 21:16:47 10° NW 21:16:54 11° NW 21:16:54 11° NW visible
19 Mar -1.8 18:51:59 10° WNW 18:54:49 24° N 18:57:38 10° NE visible
19 Mar -1.5 20:29:33 10° NW 20:31:36 22° NNW 20:31:36 22° NNW visible
20 Mar -1.8 19:42:14 10° NW 19:44:58 22° N 19:46:15 18° NE visible
20 Mar -0.2 21:19:03 10° NW 21:19:14 11° NW 21:19:14 11° NW visible
21 Mar -1.7 18:54:49 10° NW 18:57:30 21° N 19:00:12 10° NE visible
21 Mar -1.8 20:31:49 10° NW 20:33:52 27° NNW 20:33:52 27° NNW visible
22 Mar -2.3 19:44:33 10° NW 19:47:34 28° NNE 19:48:29 25° NE visible
22 Mar -0.2 21:21:16 10° WNW 21:21:28 11° WNW 21:21:28 11° WNW visible
